Location: Wingville
(42.9917°N, 90.4915°W)
Time: 21:23:06
(UTC+00:00)

AO-73 - Visible Passes

Search period start: 26 June 2022 00:00
Search period end: 06 July 2022 00:00
Orbit: 578 x 658 km, 97.6° (Epoch: 26 June)

Date Brightness Start Highest point End Pass type
(mag) Time Alt. Az. Time Alt. Az. Time Alt. Az.
26 Jun ? 09:05:35 10° NE 09:08:39 18° E 09:11:44 10° SE visible
27 Jun ? 09:21:46 10° NE 09:25:33 27° E 09:29:22 10° SSE visible
28 Jun ? 09:38:12 10° NNE 09:42:24 40° E 09:46:39 10° SSE visible
01 Jul ? 08:53:55 10° ENE 08:56:16 14° E 08:58:37 10° ESE visible
02 Jul ? 09:09:47 10° NE 09:13:10 21° E 09:16:34 10° SE visible
03 Jul ? 09:26:03 10° NNE 09:30:02 30° E 09:34:02 10° SSE visible
04 Jul ? 09:42:31 10° NNE 09:46:51 45° E 09:51:12 10° S visible
